     2              OBSERVATION DATA    GPS                 RINEX VERSION / TYPE
teqc 1997Jul24 19970814                                     PGM / RUN BY / DATE
                                                            COMMENT
BIT 2 OF LLI FLAGS DATA COLLECTED UNDER A-S CONDITION       COMMENT
BIT 2 OF LLI FLAGS DATA COLLECTED UNDER A-S CONDITION       COMMENT
Original Marker Name: OTAY                                  COMMENT
Campaign Name: hpgn ca 1991                                 COMMENT
4-Character Station Name: OTAY                              COMMENT
6-Character Antenna Code: TRMSST                            COMMENT
Vertical Measurement Point: BPA                             COMMENT
Vertical Offset to Rinex Ref. Point: 0.0000                 COMMENT
Radial Measurement Point: RRP                               COMMENT
Radial Offset to Rinex Ref. Point: 0.0000                   COMMENT
Antenna Height from Field Measurement: 2.2200 m             COMMENT
Original XYZ: -2428822.5671 -4799754.1166 3417271.2220      COMMENT
New XYZ position is based on association with SCEC monument COMMENT
E1C8G3P4+0011. Position of that monument is believed to be  COMMENT
valid to within 1 m horizontally; vertical accuracy         COMMENT
should be no worse than 3-times this value.                 COMMENT
                                                            COMMENT
Revised Rinex header created by UCSD GPS archive for        COMMENT
GSAC on 10-Apr-1999 (1999:100) 02:55:53 GMT                 COMMENT
For assistance contact dagnew@ucsd.edu or hjohnson@ucsd.edu COMMENT
                                                            COMMENT
(SANDIE NASA 1976)                                          MARKER NAME
unknown CALIF DEPT TRANSPORTATION                           OBSERVER / AGENCY
622 TRIMBLE 4000 SST NP 4.30 / SP 4.20                      REC # / TYPE / VERS
123 TR 4000SST L1/L2 GEO                                    ANT # / TYPE
 -2428826.0000 -4799750.0000  3417273.0000                  APPROX POSITION XYZ
        2.2200        0.0000        0.0000                  ANTENNA: DELTA H/E/N
     1     1     0                                          WAVELENGTH FACT L1/2
     3    C1    L1    L2                                    # / TYPES OF OBSERV
     0                                                      INTERVAL
  1991     4     6     2    36   45.000000                  TIME OF FIRST OBS
  1991     4     6     3    30    0.000000                  TIME OF LAST OBS
     0                                                      # OF SATELLITES
                                                            END OF HEADER
 91  4  6  2 36 45.0000000  0  4G13G 2G 6G12
  20601048.938          -0.60918
  22654329.9384         -0.62556
  21790300.7734         -0.00356
  22955511.836          -0.56416
 91  4  6  2 37  0.0000000  0  4G13G 2G 6G12
  20604983.688       20684.751 8        -0.05532
  22660719.5784      33573.69246        -0.41471
  21798855.2034      44954.40646        -0.02872
  22947952.6094     -39725.79446        -0.17571
 91  4  6  2 37 15.0000000  0  4G13G 2G 6G12
  20608937.797       41462.547 7     16190.45222
  22667115.6484      67198.48746     26200.73461
  21807433.977       90021.270 6     35116.99522
  22940402.289      -79399.931 6    -30915.00021
 91  4  6  2 37 30.0000000  0  4G13G 2G 6G12
  20612912.578       62344.285 8     32461.95722
  22673526.0164     100885.15346     52450.09861
  21816033.586      135211.892 6     70330.43922
  22932864.891     -119011.121 6    -61780.77921
 91  4  6  2 37 45.0000000  0  4G13G 2G 6G12
  20616906.391       83332.055 8     48816.08522
  22679949.3984     134635.90646     78749.39361
  21824654.188      180528.197 6    105641.82222
  22925338.836     -158556.852 6    -92595.55121
 91  4  6  2 38  0.0000000  0  4G13G 2G 6G12
  20620917.586      104417.013 8     65245.94022
  22686383.7814     168442.43146    105092.14061
  21833300.5554     225961.57246    141044.44962
  22917825.8524    -198045.14346   -123365.55361
 91  4  6  2 38 15.0000000  0  4G13G 2G 6G12
  20624948.555      125596.796 8     81749.68422
  22692828.070      202302.778 6    131476.84721
  21841969.5084     271509.85446    176536.61362
  22910320.8204    -237477.70146   -154092.11761
 91  4  6  2 38 30.0000000  0  4G13G 2G 6G12
  20628995.609      146864.652 8     98322.05222
  22699278.8674     236210.43246    157898.39261
  21850658.8594     317166.32946    212113.07961
  22902826.344     -276860.478 6   -184779.89321
 91  4  6  2 38 45.0000000  0  4G13G 2G 6G12
  20633059.070      168220.369 7    114962.89022
  22705740.5634     270165.65146    184357.00461
  21859368.805      362930.951 6    247773.80022
  22895341.0554    -316193.10646   -215428.59861
 91  4  6  2 39  0.0000000  0  4G13G 2G 6G12
  20637141.250      189669.836 7    131676.77422
  22712212.7974     304174.54346    210857.44161
  21868094.242      408809.544 6    283523.33622
  22887868.1484    -355469.15946   -246033.21561
 91  4  6  2 39 15.0000000  0  4G13G 2G 6G12
  20641238.789      211206.932 7    148458.94422
  22718693.3984     338231.16046    237395.06861
  21876847.359      454795.955 6    319356.88821
  22880404.977     -394694.126 7   -276598.04321
 91  4  6  2 39 30.0000000  0  4G13G 2G 6G12
  20645354.523      232836.981 7    165313.54622
  22725184.5234     372341.49346    263974.56261
  21885620.891      500895.913 6    355278.91522
  22872950.8984    -433861.78346   -307118.20061
 91  4  6  2 39 45.0000000  0  4G13G 2G 6G12
  20649488.555      254560.474 7    182240.96622
  22731686.2974     406506.02546    290596.27961
  21894413.875      547109.898 6    391289.79122
  22865507.859     -472971.110 6   -337592.91921
 91  4  6  2 40  0.0000000  0  4G13G 2G 6G12
  20653641.094      276377.909 7    199241.58422
  22738198.6804     440725.75046    317260.99961
  21903229.3054     593438.21746    427389.76461
  22858076.4924    -512021.07246   -368021.37361
 91  4  6  2 40 15.0000000  0  4G13G 2G 6G12
  20657811.414      298293.558 7    216318.73222
  22744720.2974     475005.09646    343972.18161
  21912068.117      639885.163 6    463582.17421
  22850656.0554    -551006.92946   -398399.87461
 91  4  6  2 40 30.0000000  0  4G13G 2G 6G12
  20662002.648      320319.729 7    233482.00422
  22751257.8364     509356.74246    370739.70961
  21920933.367      686463.318 6    499876.82221
  22843253.039     -589915.410 6   -428718.08421
 91  4  6  2 40 45.0000000  0  4G13G 2G 6G12
  20666215.422      342458.400 7    250732.92822
  22757808.6024     543782.94646    397565.32161
  21929822.141      733174.787 6    536275.35121
  22835864.031     -628743.932 6   -458973.99421
 91  4  6  2 41  0.0000000  0  4G13G 2G 6G12
  20670454.203      364733.245 7    268089.97422
  22764377.8984     578307.62846    424467.67861
  21938740.422      780042.988 6    572796.00521
  22828495.430     -667468.298 6   -489148.73821
 91  4  6  2 41 15.0000000  0  4G13G 2G 6G12
  20674718.672      387140.147 7    285549.91722
  22770968.2734     612926.94646    451443.77961
  21947688.367      827063.942 6    609435.68721
  22821145.0864    -706092.03646   -519245.06761
 91  4  6  2 41 30.0000000  0  4G13G 2G 6G12
  20679005.922      409671.802 7    303107.07422
  22777571.4774     647634.13746    478488.34961
  21956663.359      874230.569 6    646188.88021
  22813814.0394    -744621.58246   -549268.00261
 91  4  6  2 41 45.0000000  0  4G13G 2G 6G12
  20683314.891      432319.196 7    320754.41122
  22784192.1954     682420.56346    505594.65361
  21965665.055      921533.980 6    683048.65921
  22806499.0394    -783065.17646   -579223.96361
 91  4  6  2 42  0.0000000  0  4G13G 2G 6G12
  20687645.414      455077.179 7    338487.92122
  22790822.2974     717281.35546    532758.90961
  21974690.031      968969.035 6    720011.02121
  22799198.0164    -821427.42646   -609116.52661
 91  4  6  2 42 15.0000000  0  4G13G 2G 6G12
  20691996.563      477939.067 7    356302.39922
  22797471.8524     752209.89646    559975.96461
  21983740.500     1016528.837 6    757070.58421
  22791912.5234    -859714.46746   -638950.50461
 91  4  6  2 42 30.0000000  0  4G13G 2G 6G12
  20696367.516      500906.997 7    374199.51122
  22804133.0314     787208.82846    587247.85161
  21992814.414     1064215.890 6    794229.30721
  22784640.391     -897923.501 6   -668723.69421
 91  4  6  2 42 45.0000000  0  4G13G 2G 6G12
  20700757.227      523978.164 7    392177.05822
  22810803.0864     822275.52646    614572.53761
  22001913.9774    1112027.10646    831484.77161
  22777384.4454    -936056.89446   -698437.93861
 91  4  6  2 43  0.0000000  0  4G13G 2G 6G12
  20705166.063      547146.680 8    410230.46222
  22817486.3524     857404.58646    641945.83261
  22011036.227     1159956.799 6    868832.55621
  22770141.2974    -974119.70046   -728097.18461
 91  4  6  2 43 15.0000000  0  4G13G 2G 6G12
  20709594.3834     570414.31848    428361.11862
  22824186.4144     892597.95446    669369.24861
  22020175.875     1208006.736 6    906274.04521
  22762912.3594   -1012109.57346   -757699.59861
 91  4  6  2 43 30.0000000  0  4G13G 2G 6G12
  20714039.438      593777.079 8    446565.88822
  22830897.1174     927852.15546    696840.05361
  22029341.6804    1256173.22346    943806.35961
  22755696.164    -1050029.643 7   -787247.62221
 91  4  6  2 43 45.0000000  0  4G13G 2G 6G12
  20718501.297      617224.652 7    464836.74122
  22837614.2504     963157.08046    724350.38561
  22038530.195     1304445.838 6    981421.36021
  22748492.359    -1087889.781 7   -816748.94121
 91  4  6  2 44  0.0000000  0  4G13G 2G 6G12
  20722980.570      640761.127 7    483176.87022
  22844342.4534     998517.25746    751903.76261
  22047739.336     1352828.787 6   1019122.33621
  22741299.922    -1125685.120 7   -846199.77321
 91  4  6  2 44 15.0000000  0  4G13G 2G 6G12
  20727474.836      664381.672 7    501582.51122
  22851078.9384    1033928.02846    779496.57561
  22056965.4304    1401317.21446   1056905.49561
  22734119.3834   -1163419.98047   -875603.46961
 91  4  6  2 44 30.0000000  0  4G13G 2G 6G12
  20731985.969      688087.528 7    520054.62822
  22857827.4844    1069390.87146    807129.96261
  22066210.063     1449912.400 6   1094771.84921
  22726950.2664   -1201092.42447   -904958.53561
 91  4  6  2 44 45.0000000  0  4G13G 2G 6G12
  20736513.219      711877.486 7    538592.27222
  22864586.4534    1104904.95246    834803.28061
  22075478.852     1498613.155 6   1132720.46721
  22719793.250    -1238703.011 7   -934265.40121
 91  4  6  2 45  0.0000000  0  4G13G 2G 6G12
  20741056.250      735754.272 7    557197.57822
  22871355.3594    1140473.19146    862518.79861
  22084767.141     1547422.175 6   1170753.44721
  22712647.898    -1276248.335 7   -963521.41221
 91  4  6  2 45 15.0000000  0  4G13G 2G 6G12
  20745617.148      759719.764 7    575872.00522
  22878135.2344    1176097.75446    890278.19861
  22094075.570     1596341.443 6   1208872.33221
  22705516.8364   -1313725.92147   -992724.63161
 91  4  6  2 45 30.0000000  0  4G13G 2G 6G12
  20750194.711      783771.575 8    594613.68922
  22884925.3674    1211776.56546    918079.86661
  22103407.133     1645368.606 6   1247075.28921
  22698397.6644   -1351137.31047  -1021876.27361
 91  4  6  2 45 45.0000000  0  4G13G 2G 6G12
  20754788.406      807912.951 7    613425.16522
  22891722.9064    1247513.43846    945926.78861
  22112758.6884    1694507.11046   1285365.00061
  22691291.1724   -1388478.62547  -1050973.31161
 91  4  6  2 46  0.0000000  0  4G13G 2G 6G12
  20759398.391      832138.796 7    632302.46322
  22898535.0234    1283303.61246    973815.22861
  22122129.9064    1743751.86046   1323737.50061
  22684198.1024   -1425754.37347  -1080019.25861
 91  4  6  2 46 15.0000000  0  4G13G 2G 6G12
  20764024.7664     856447.25248    651244.13162
  22905357.0314    1319145.38346   1001743.87661
  22131517.773     1793100.869 6   1362191.24921
  22677116.6884   -1462965.86547  -1109015.14161
 91  4  6  2 46 30.0000000  0  4G13G 2G 6G12
  20768665.3754     880833.19448    670246.16962
  22912185.7034    1355034.07446   1029709.09561
  22140928.172     1842549.321 6   1400722.48821
  22670047.1884   -1500117.29447  -1137964.21661
 91  4  6  2 46 45.0000000  0  4G13G 2G 6G12
  20773319.883      905298.548 8    689310.09722
  22919025.3594    1390971.86446   1057712.57761
  22150359.3524    1892099.06946   1439332.65161
  22662989.5314   -1537206.20747  -1166864.57861
 91  4  6  2 47  0.0000000  0  4G13G 2G 6G12
  20777990.375      929842.916 8    708435.59522
  22925872.1484    1426958.49046   1085754.09561
  22159806.406     1941749.640 6   1478021.38021
  22655943.242    -1574232.558 7  -1195716.19821
 91  4  6  2 47 15.0000000  0  4G13G 2G 6G12
  20782678.859      954480.292 8    727633.56222
  22932729.844     1463008.287 6   1113844.86321
  22169276.6954    1991515.08446   1516799.62061
  22648911.156    -1611181.585 7  -1224507.56621
 91  4  6  2 47 30.0000000  0  4G13G 2G 6G12
  20787381.688      979195.522 8    746892.20122
  22939604.5314    1499106.70146   1141973.49761
  22178764.086     2041380.601 6   1555655.84021
  22641892.258    -1648067.516 6  -1253249.76921
 91  4  6  2 47 45.0000000  0  4G13G 2G 6G12
  20792101.6884    1003992.86448    766214.81562
  22946482.6024    1535258.13046   1170143.43161
  22188272.625     2091350.185 6   1594593.15721
  22634885.617    -1684885.762 6  -1281939.22721
 91  4  6  2 48  0.0000000  0  4G13G 2G 6G12
  20796836.6884    1028875.58048    785603.95362
  22953372.7274    1571466.09046   1198357.43561
  22197804.781     2141427.123 6   1633614.12421
  22627893.516    -1721632.442 7  -1310572.92521
 91  4  6  2 48 15.0000000  0  4G13G 2G 6G12
  20801585.703     1053839.108 8    805056.06322
  22960272.797     1607726.357 6   1226612.19221
  22207353.414     2191606.787 6   1672715.13921
  22620913.258    -1758311.327 7  -1339153.79821
 91  4  6  2 48 30.0000000  0  4G13G 2G 6G12
  20806353.242     1078890.763 8    824576.84922
  22967183.9924    1644046.75146   1254913.80761
  22216922.6484    2241896.76546   1711902.10561
  22613947.695    -1794914.314 7  -1367675.52721
 91  4  6  2 48 45.0000000  0  4G13G 2G 6G12
  20811137.8674    1104029.97948    844165.85762
  22974104.7894    1680426.93246   1283262.00561
  22226512.000     2292296.469 6   1751174.57021
  22606997.703    -1831441.462 7  -1396138.15721
 91  4  6  2 49  0.0000000  0  4G13G 2G 6G12
  20815937.445     1129254.138 8    863821.05822
  22981039.7424    1716864.40546   1311654.83761
  22236122.2344    2342803.12646   1790530.38161
  22600061.289    -1867894.747 7  -1424543.23621
 91  4  6  2 49 15.0000000  0  4G13G 2G 6G12
  20820753.383     1154563.193 8    883542.41522
  22987985.8754    1753359.56646   1340092.62161
  22245755.4774    2393416.93346   1829969.68761
  22593138.4774   -1904273.46547  -1452890.21861
 91  4  6  2 49 30.0000000  0  4G13G 2G 6G12
  20825586.680     1179956.605 8    903329.50222
  22994937.3054    1789912.08546   1368575.10061
  22255407.9844    2444137.39946   1869492.09061
  22586229.7344   -1940577.50147  -1481179.00261
 91  4  6  2 49 45.0000000  0  4G13G 2G 6G12
  20830433.0704    1205431.30148    923179.92362
  23001905.3594    1826519.32446   1397100.22761
  22265078.7274    2494961.49646   1909095.24661
  22579334.8984   -1976809.09847  -1509411.35961
 91  4  6  2 50  0.0000000  0  4G13G 2G 6G12
  20835296.7034    1230988.12748    943094.34262
  23008882.5394    1863182.23246   1425668.71861
  22274768.6024    2545889.87946   1948779.65661
  22572454.328    -2012967.019 7  -1537586.29321
 91  4  6  2 50 15.0000000  0  4G13G 2G 6G12
  20840175.7344    1256627.03648    963072.72062
  23015870.5474    1899901.01546   1454280.75561
  22284479.141     2596922.610 6   1988545.39321
  22565588.0234   -2049050.75947  -1565703.42561
 91  4  6  2 50 30.0000000  0  4G13G 2G 6G12
  20845071.4384    1282353.18948    983119.07562
  23022869.6884    1936681.46546   1482940.84161
  22294212.0704    2648064.92646   2028396.51961
  22558736.430    -2085054.396 7  -1593758.13621
 91  4  6  2 50 45.0000000  0  4G13G 2G 6G12
  20849982.992     1308164.454 8   1003231.76322
  23029877.7424    1973521.48546   1511647.35161
  22303967.984     2699314.494 6   2068331.22321
  22551900.0944   -2120979.40547  -1621751.57961
 91  4  6  2 51  0.0000000  0  4G13G 2G 6G12
  20854910.188     1334059.871 8   1023410.02022
  23036899.7114    2010420.47246   1540399.81261
  22313740.1024    2750670.44246   2108348.81061
  22545077.8754   -2156826.17747  -1649684.06861
 91  4  6  2 51 15.0000000  0  4G13G 2G 6G12
  20859855.1564    1360042.88348   1043656.53162
  23043933.0004    2047382.30746   1569201.24361
  22323533.6564    2802136.38046   2148452.10561
  22538272.1564   -2192590.48447  -1677552.29661
 91  4  6  2 51 30.0000000  0  4G13G 2G 6G12
  20864815.6174    1386111.23348   1063969.53662
  23050978.383     2084404.919 6   1598050.01321
  22333345.6484    2853710.06946   2188639.35961
  22531481.7734   -2228273.90347  -1705357.50661
 91  4  6  2 51 45.0000000  0  4G13G 2G 6G12
  20869791.633     1412262.108 8   1084346.85622
  23058035.2814    2121485.80446   1626944.20561
  22343180.8054    2905388.72846   2228908.40261
  22524706.305    -2263878.654 7  -1733101.41321
 91  4  6  2 52  0.0000000  0  4G13G 2G 6G12
  20874783.828     1438493.685 8   1104787.05822
  23065102.7344    2158623.74846   1655882.85161
  22353035.1254    2957170.67646   2269257.93961
  22517945.3594   -2299405.78047  -1760784.82661
 91  4  6  2 52 15.0000000  0  4G13G 2G 6G12
  20879790.7664    1464808.80248   1125292.35362
  23072184.039     2195821.807 6   1684868.34321
  22362908.414     3009058.745 6   2309690.15421
  22511200.3674   -2334851.79547  -1788405.03661
 91  4  6  2 52 30.0000000  0  4G13G 2G 6G12
  20884814.031     1491206.517 7   1145862.01422
  23079273.4384    2233079.14946   1713900.03461
  22372802.4774    3061051.88246   2350204.25261
  22504470.5704   -2370217.03747  -1815962.30661
 91  4  6  2 52 45.0000000  0  4G13G 2G 6G12
  20889852.305     1517684.436 7   1166494.17522
  23086375.500     2270393.936 6   1742976.48221
  22382716.7584    3113147.79846   2390798.43461
  22497755.5164   -2405503.27347  -1843458.01461
 91  4  6  2 53  0.0000000  0  4G13G 2G 6G12
  20894906.8984    1544242.45948   1187188.74962
  23093484.5394    2307766.26146   1772097.77761
  22392650.5784    3165346.41646   2431472.64961
  22491055.4924   -2440709.94447  -1870891.72561
 91  4  6  2 53 15.0000000  0  4G13G 2G 6G12
  20899976.539     1570883.122 7   1207947.71422
  23100608.2974    2345198.82546   1801265.99761
  22402602.3914    3217650.30246   2472228.88361
  22484371.8674   -2475833.76147  -1898260.86761
 91  4  6  2 53 30.0000000  0  4G13G 2G 6G12
  20905062.047     1597607.425 7   1228771.86222
  23107743.6954    2382692.84046   1830482.10961
  22412574.7114    3270060.22246   2513067.75461
  22477704.8054   -2510873.28047  -1925564.33061
 91  4  6  2 53 45.0000000  0  4G13G 2G 6G12
  20910162.227     1624412.921 7   1249659.27422
  23114887.672     2420246.438 6   1859744.63821
  22422568.039     3322573.994 6   2553987.55021
  22471052.0004   -2545830.27847  -1952803.49161
 91  4  6  2 54  0.0000000  0  4G13G 2G 6G12
  20915279.750     1651301.901 7   1270611.73622
  23122045.023     2457862.270 6   1889055.64821
  22432583.195     3375193.953 6   2594990.09421
  22464416.9774   -2580701.51747  -1979975.82561
 91  4  6  2 54 15.0000000  0  4G13G 2G 6G12
  20920409.750     1678268.264 7   1291624.50422
  23129216.906     2495534.434 6   1918410.56321
  22442615.0554    3427913.92646   2636070.54761
  22457796.7734   -2615492.61847  -2007085.70961
 91  4  6  2 54 30.0000000  0  4G13G 2G 6G12
  20925556.688     1705310.495 7   1312696.38922
  23136395.2344    2533261.68446   1947808.40961
  22452666.453     3480732.365 6   2677227.73121
  22451190.5704   -2650204.38047  -2034133.77261
 91  4  6  2 54 45.0000000  0  4G13G 2G 6G12
  20930716.555     1732427.737 7   1333826.72222
  23143585.2034    2571043.34246   1977248.64961
  22462733.633     3533648.414 6   2718460.96821
  22444600.4144   -2684837.10547  -2061120.24761
 91  4  6  2 55  0.0000000  0  4G13G 2G 6G12
  20935891.516     1759620.543 7   1355015.93422
  23150784.727     2608880.270 6   2006731.96021
  22472822.3674    3586662.55646   2759770.65461
  22438025.7424   -2719389.59847  -2088044.20561
 91  4  6  2 55 15.0000000  0  4G13G 2G 6G12
  20941081.1804    1786889.32647   1376264.34662
  23157994.2424    2646773.43246   2036259.09361
  22482929.6254    3639775.53046   2801157.35161
  22431466.2344   -2753860.59047  -2114904.65761
 91  4  6  2 55 30.0000000  0  4G13G 2G 6G12
  20946284.398     1814235.450 7   1397573.02422
  23165216.789     2684724.339 6   2065831.22121
  22493056.117     3692988.483 6   2842621.94521
  22424922.0864   -2788248.17147  -2141700.10561
 91  4  6  2 55 45.0000000  0  4G13G 2G 6G12
  20951503.406     1841660.722 7   1418943.38522
  23172447.5554    2722734.94546   2095449.86361
  22503201.8284    3746303.18246   2884165.82261
  22418395.938    -2822549.990 7  -2168428.71921
 91  4  6  2 56  0.0000000  0  4G13G 2G 6G12
  20956736.7584    1869164.93447   1440375.25262
  23179695.1094    2760805.38846   2125115.13361
  22513366.9304    3799719.32446   2925788.75061
  22411884.5394   -2856765.65047  -2195090.20761
 91  4  6  2 56 15.0000000  0  4G13G 2G 6G12
  20961985.7274    1896748.51747   1461868.96662
  23186952.898     2798936.385 6   2154827.57421
  22523551.328     3853237.482 6   2967491.16521
  22405388.906    -2890893.973 7  -2221683.63721
 91  4  6  2 56 30.0000000  0  4G13G 2G 6G12
  20967249.641     1924410.186 7   1483423.52422
  23194218.078     2837127.327 6   2184586.72521
  22533754.188     3906856.637 6   3009272.28021
  22398911.6954   -2924935.34347  -2248209.31661
 91  4  6  2 56 45.0000000  0  4G13G 2G 6G12
  20972529.1564    1952149.61547   1505038.67062
  23201497.3204    2875378.03646   2214392.46261
  22543977.805     3960576.303 6   3051131.70821
  22392448.4454   -2958889.44347  -2274666.99061
 91  4  6  2 57  0.0000000  0  4G13G 2G 6G12
  20977822.063     1979964.046 7   1526712.26822
  23208786.664     2913686.212 6   2244242.98621
  22554220.258     4014393.800 6   3093067.37521
  22386003.578    -2992758.424 7  -2301058.33221
 91  4  6  2 57 15.0000000  0  4G13G 2G 6G12
  20983129.227     2007853.541 7   1548444.35322
  23216084.7114    2952051.87446   2274138.27561
  22564477.922     4068308.946 6   3135079.12921
  22379575.6414   -3026541.86947  -2327383.02061
 91  4  6  2 57 30.0000000  0  4G13G 2G 6G12
  20988451.3204    2035819.35247   1570235.90062
  23223399.852     2990476.807 6   2304079.76121
  22574754.1174    4122323.24446   3177168.15161
  22373163.594    -3060237.452 7  -2353639.24322
 91  4  6  2 57 45.0000000  0  4G13G 2G 6G12
  20993787.3134    2063860.87947   1592086.45262
  23230721.555     3028960.632 6   2334067.13521
  22585053.648     4176436.092 6   3219333.96821
  22366767.688    -3093845.277 7  -2379827.08421
 91  4  6  2 58  0.0000000  0  4G13G 2G 6G12
  20999136.359     2091975.204 7   1613993.73722
  23238056.3204    3067500.53046   2364098.21261
  22595369.469     4230644.373 6   3261574.14221
  22360389.5314   -3127367.77247  -2405948.44261
 91  4  6  2 58 15.0000000  0  4G13G 2G 6G12
  21004501.875     2120167.514 7   1635961.78522
  23245403.4224    3106101.93646   2394177.21861
  22605704.0554    4284953.33846   3303892.77761
  22354027.1724   -3160799.09847  -2431998.76261
 91  4  6  2 58 30.0000000  0  4G13G 2G 6G12
  21009879.445     2148431.566 7   1657985.73422
  23252759.625     3144759.111 6   2424299.68121
  22616056.180     4339356.752 6   3346285.00721
  22347681.1174   -3194144.78347  -2457982.34061
 91  4  6  2 58 45.0000000  0  4G13G 2G 6G12
  21015272.000     2176771.254 7   1680068.63222
  23260125.805     3183476.221 6   2454468.84021
  22626428.250     4393858.482 6   3388753.83721
  22341352.7814   -3227400.16847  -2483895.55561
 91  4  6  2 59  0.0000000  0  4G13G 2G 6G12
  21020679.313     2205185.676 8   1702209.76222
  23267506.8914    3222252.48246   2484684.08061
  22636818.672     4448457.591 6   3431298.55121
  22335042.2664   -3260565.65447  -2509738.72461
 91  4  6  2 59 15.0000000  0  4G13G 2G 6G12
  21026101.313     2233674.009 8   1724408.47622
  23274894.539     3261087.548 6   2514945.15321
  22647225.0164    4503153.45646   3473918.66361
  22328748.336    -3293641.216 7  -2535511.80921
 91  4  6  2 59 30.0000000  0  4G13G 2G 6G12
  21031536.875     2262241.345 8   1746668.75922
  23282297.672     3299986.744 6   2545256.20221
  22657654.445     4557951.029 6   3516618.02321
  22322472.172    -3326621.181 7  -2561210.41522
 91  4  6  2 59 45.0000000  0  4G13G 2G 6G12
  21036986.938     2290881.211 8   1768985.55922
  23289711.9694    3338943.94946   2575612.45961
  22668100.609     4612843.817 6   3559391.57521
  22316213.445    -3359511.391 7  -2586839.06922
 91  4  6  3  0  0.0000000  0  4G13G 2G 6G12
  21042451.625     2319596.366 8   1791361.02222
  23297136.7274    3377962.20246   2606016.27561
  22678563.7114    4667834.59946   3602241.48161
  22309971.5784   -3392308.45647  -2612395.15561
 91  4  6  3  0 15.0000000  0  4G13G 2G 6G12
  21047930.1334    2348385.46848   1813794.09962
  23304573.758     3417040.538 6   2636466.89221
  22689047.086     4722922.155 6   3645166.78421
  22303748.906    -3425012.918 7  -2637879.07622
 91  4  6  3  0 30.0000000  0  4G13G 2G 6G12
  21053422.891     2377247.905 8   1836284.32922
  23312019.102     3456178.521 6   2666963.99921
  22699546.727     4778105.647 6   3688166.85621
  22297542.758    -3457624.895 7  -2663290.93121
 91  4  6  3  0 45.0000000  0  4G13G 2G 6G12
  21058928.477     2406179.424 8   1858828.38522
  23319475.344     3495372.437 6   2697504.71021
  22710065.133     4833381.052 6   3731238.54921
  22291353.258    -3490147.780 7  -2688633.36721
 91  4  6  3  1  0.0000000  0  4G13G 2G 6G12
  21064445.438     2435179.751 8   1881426.06122
  23326945.227     3534621.979 6   2728088.75721
  22720602.023     4888747.921 6   3774381.51821
  22285181.4224   -3522581.32647  -2713906.19362
 91  4  6  3  1 15.0000000  0  4G13G 2G 6G12
  21069976.789     2464249.595 8   1904077.90822
  23334427.766     3573928.257 6   2758717.00721
  22731156.852     4944206.899 6   3817596.25321
  22279025.8914   -3554924.17247  -2739108.34362
 91  4  6  3  1 30.0000000  0  4G13G 2G 6G12
  21075524.539     2493393.394 8   1926787.37422
  23341917.7424    3613296.01946   2789393.16161
  22741730.3754    4999762.49746   3860886.27561
  22272890.0164   -3587171.11147  -2764235.75862
 91  4  6  3  1 45.0000000  0  4G13G 2G 6G12
  21081082.297     2522608.619 8   1949552.50922
  23349421.969     3652723.176 6   2820115.58221
  22752319.0704    5055412.29546   3904249.68861
  22266770.930    -3619324.041 7  -2789289.91622
 91  4  6  3  2  0.0000000  0  4G13G 2G 6G12
  21086656.180     2551893.347 8   1972371.79622
  23356935.469     3692207.911 6   2850882.87721
  22762924.727     5111154.145 6   3947684.83821
  22260670.813    -3651384.525 7  -2814272.03422
 91  4  6  3  2 15.0000000  0  4G13G 2G 6G12
  21092242.367     2581243.968 8   1995242.42322
  23364458.867     3731746.801 6   2881692.38421
  22773547.578     5166984.378 6   3991188.86721
  22254587.633    -3683355.426 7  -2839184.35022
 91  4  6  3  2 30.0000000  0  4G13G 2G 6G12
  21097839.625     2610664.977 8   2018167.89522
  23371995.2584    3771344.69846   2912547.86561
  22784188.250     5222907.593 6   4034765.35321
  22248520.6564   -3715231.54947  -2864022.82062
 91  4  6  3  2 45.0000000  0  4G13G 2G 6G12
  21103451.523     2640155.468 8   2041147.52022
  23379539.227     3811001.063 6   2943448.90321
  22794850.9694    5278922.99946   4078413.65961
  22242473.2344   -3747012.95947  -2888787.49262
 91  4  6  3  3  0.0000000  0  4G13G 2G 6G12
  21109076.406     2669711.900 8   2064178.52322
  23387098.8134    3850712.65646   2974392.95961
  22805527.4144    5335027.01946   4122131.01761
  22236443.188    -3778702.663 7  -2913480.69522
 91  4  6  3  3 15.0000000  0  4G13G 2G 6G12
  21114712.852     2699332.593 8   2087259.59422
  23394666.5864    3890478.31546   3005379.14861
  22816220.594     5391218.069 6   4165916.19221
  22230430.344    -3810301.569 7  -2938103.13522
 91  4  6  3  3 30.0000000  0  4G13G 2G 6G12
  21120362.563     2729021.036 8   2110393.46622
  23402245.086     3930301.276 6   3036409.99221
  22826930.406     5447499.161 6   4209771.52721
  22224435.727    -3841805.924 7  -2962651.90722
 91  4  6  3  3 45.0000000  0  4G13G 2G 6G12
  21126024.484     2758775.014 8   2133578.40322
  23409832.3594    3970179.97946   3067484.27661
  22837654.258     5503868.362 6   4253695.53721
  22218456.9534   -3873217.04247  -2987128.03662
 91  4  6  3  4  0.0000000  0  4G13G 2G 6G12
  21131698.2274    2788593.64248   2156813.70462
  23417427.5634    4010113.87846   3098601.56661
  22848398.031     5560324.872 6   4297687.57421
  22212497.0554   -3904535.11347  -3011531.66362
 91  4  6  3  4 15.0000000  0  4G13G 2G 6G12
  21137383.6254    2818476.53247   2180099.10562
  23425041.3984    4050102.63746
  22859159.4774    5616868.11146
  22206555.070    -3935759.978 7  -3035862.63122
 91  4  6  3  4 30.0000000  0  4G13G 2G 6G12
  21143082.2194    2848413.59447   2203426.68462
  23432658.6884    4090136.53046
  22869935.9614    5673487.91946
  22200628.945    -3966901.070 7  -3060128.39022
 91  4  6  3  4 45.0000000  0  4G13G 2G 6G12
  21148784.977     2878389.435 7   2226784.48722
  23440284.7734    4130200.44646
  22880720.9614    5730168.87546
  22194716.2504   -3997973.17747  -3084340.35762
 91  4  6  3  5  0.0000000  0  4G13G 2G 6G12
  21154497.219     2908406.941 7   2250174.77722
  23447912.297     4170297.665 6
  22891521.844     5786914.104 6
  22188817.5704   -4028972.51747  -3108495.62462
 91  4  6  3  5 15.0000000  0  4G13G 2G 6G12
  21160219.672     2938470.085 7   2273600.62522
  23455549.406     4210432.311 6        -0.27931
  22902329.8834    5843727.36546        -0.07771
  22182932.3674   -4059894.65247  -3132590.72762
 91  4  6  3  5 30.0000000  0  4G13G 2G 6G12
  21165949.242     2968586.833 7   2297068.23322
  23463194.883     4250612.484 6     31308.92321
  22913155.063     5900616.503 6     44329.06821
  22177065.0004   -4090731.03847  -3156619.01862
 91  4  6  3  5 45.0000000  0  4G13G 2G 6G12
  21171691.836     2998759.825 7   2320579.67122
  23470852.1094    4290841.13346     62655.88861
  22923996.320     5957584.108 6     88719.35121
  22171213.8594   -4121478.44547  -3180577.97562
 91  4  6  3  6  0.0010000  0  4G13G 2G 6G12
  21177444.622     3028990.006 7   2344135.67522
  23478516.802     4331120.370 6     94042.28721
  22934853.310     6014633.113 6    133173.07221
  22165379.8884   -4152139.09347  -3204469.33562
 91  4  6  3  6 15.0010000  0  4G13G 2G 6G12
  21183206.661     3059275.133 7   2367734.48522
  23486189.1224    4371446.79346    125465.43661
  22945720.7474    6071757.60046    177685.59761
  22159562.3884   -4182706.59147  -3228288.10362
 91  4  6  3  6 30.0010000  0  4G13G 2G 6G12
  21188981.9584    3089626.26047   2391384.71362
  23493873.474     4411832.463 6    156934.75521
  22956610.013     6128970.410 5    222266.94221
  22153764.005    -4213173.208 7  -3252028.27421
 91  4  6  3  6 45.0010000  0  4G13G 2G 6G12
  21194771.646     3120039.169 7   2415083.11422
  23501570.802     4452273.526 6    188447.25821
  22967514.474     6186267.294 6    266913.80921
  22147985.091    -4243542.538 7  -3275692.62122
 91  4  6  3  7  0.0010000  0  4G13G 2G 6G12
  21200568.317     3150509.355 7   2438826.13722
  23509277.341     4492765.589 6    219999.47521
  22978433.5214    6243643.59546    311622.53161
  22142223.294    -4273818.657 7  -3299284.35521
 91  4  6  3  7 15.0010000  0  4G13G 2G 6G12
  21206378.8884    3181046.07447   2462620.98662
  23516992.630     4533318.216 6    251598.90321
  22989365.9584    6301108.62646    356400.42261
  22136482.067    -4303991.473 7  -3322795.56922
 91  4  6  3  7 30.0010000  0  4G13G 2G 6G12
  21212201.044     3211641.287 7   2486461.43922
  23524721.130     4573923.651 6    283239.49421
  23000318.435     6358654.313 6    401241.17921
  22130759.0054   -4334068.36847  -3346232.05361
 91  4  6  3  7 45.0010000  0  4G13G 2G 6G12
  21218034.958     3242297.184 7   2510349.15922
  23532458.278     4614584.370 6    314923.15621
  23011283.7944    6416282.85546    446146.46461
  22125053.9504   -4364046.43847  -3369591.52861
 91  4  6  3  8  0.0010000  0  4G13G 2G 6G12
  21223878.333     3273010.140 7   2534281.34922
  23540207.8414    4655296.98046    346647.23261
  23022267.403     6473990.532 6    491113.42221
  22119367.6064   -4393928.93147  -3392876.52561
 91  4  6  3  8 15.0010000  0  4G13G 2G 6G12
  21229735.138     3303784.171 7   2558261.13422
  23547964.0134    4696065.78046    378415.09961
  23033262.0604    6531781.39046    536145.19861
  22113701.0674   -4423711.01647  -3416083.28762
 91  4  6  3  8 30.0010000  0  4G13G 2G 6G12
  21235603.247     3334621.376 7   2582290.13622
  23555733.3334    4736893.23146    410228.66761
  23044276.1464    6589657.43746    581243.35961
  22108053.349    -4453390.056 7  -3439209.76222
 91  4  6  3  8 45.0010000  0  4G13G 2G 6G12
  21241483.224     3365517.651 7   2606365.16722
  23563511.497     4777775.368 6    442084.82421
  23055303.466     6647614.396 6    626404.57521
  22102422.8024   -4482969.52547  -3462258.64062
 91  4  6  3  9  0.0010000  0  4G13G 2G 6G12
  21247372.138     3396468.878 7   2630483.02522
  23571302.6924    4818708.21346    473980.51861
  23066349.3804    6705648.16246    671625.62561
  22096812.4744   -4512452.93847  -3485232.66862
 91  4  6  3  9 15.0010000  0  4G13G 2G 6G12
  21253273.599     3427476.987 8   2654645.20122
  23579100.880     4859694.110 6    505917.52921
  23077408.6924    6763760.84846    716908.17861
  22091221.4814   -4541837.55247  -3508129.70962
 91  4  6  3  9 30.0010000  0  4G13G 2G 6G12
  21259184.880     3458542.030 7   2678851.73922
  23586910.6924    4900733.35946    537896.12861
  23088480.1774    6821952.31746    762252.11061
  22085649.364    -4571122.706 7  -3530949.25822
 91  4  6  3  9 45.0010000  0  4G13G 2G 6G12
  21265108.224     3489667.752 8   2703105.56922
  23594728.7554    4941830.25246    569919.64761
  23099569.4664    6880226.55046    807660.53761
  22080094.903    -4600303.763 7  -3553687.69222
 91  4  6  3 10  0.0010000  0  4G13G 2G 6G12
  21271042.2164    3520850.04948   2727403.47962
  23602561.021     4982980.839 6    601985.02121
  23110675.1304    6938579.18045    853130.05061
  22074561.8104   -4629384.48547  -3576347.93862
 91  4  6  3 10 15.0010000  0  4G13G 2G 6G12
  21276986.1614    3552088.78248   2751745.35862
  23610406.0914    5024184.97546    634092.09861
  23121794.2164    6997009.78145    898660.32261
  22069046.6924   -4658364.55647  -3598929.75762
 91  4  6  3 10 30.0010000  0  4G13G 2G 6G12
  21282940.489     3583384.024 8   2776131.27722
  23618253.5834    5065443.21246    666241.34761
  23132927.997     7055518.739 6    944251.64821
  22063551.3884   -4687243.08847  -3621432.45162
 91  4  6  3 10 45.0010000  0  4G13G 2G 6G12
  21288907.935     3614735.955 8   2800561.37622
  23626116.5994    5106755.85546    698432.97761
  23144077.8174    7114106.05646    989904.02761
  22058075.3804   -4716019.31247  -3643855.42662
 91  4  6  3 11  0.0010000  0  4G13G 2G 6G12
  21294884.739     3646147.044 8   2825037.55822
  23633985.794     5148125.799 6    730669.24021
  23155241.8884    7172774.22146   1035619.38661
  22052619.8964   -4744690.04347  -3666196.23162
 91  4  6  3 11 15.0010000  0  4G13G 2G 6G12
  21300872.724     3677612.043 8   2849555.73121
  23641872.122     5189547.943 6    762946.21921
  23166420.841     7231517.862 6   1081393.61021
  22047182.0994   -4773259.98247  -3688458.46662
 91  4  6  3 11 30.0010000  0  4G13G 2G 6G12
  21306871.458     3709133.134 7   2874117.64921
  23649761.505     5231024.900 5    795265.88621
  23177610.9664    7290339.30845   1127228.41561
  22041764.4034   -4801726.17947  -3710639.86262
 91  4  6  3 11 45.0010000  0  4G13G 2G 6G12
  21312879.2474    3740712.38348   2898724.89462
  23657669.083     5272558.864 6    827630.01021
  23188820.114     7349240.445 5   1173125.36521
  22036369.935    -4830086.085 7  -3732738.40722
 91  4  6  3 12  0.0010000  0  4G13G 2G 6G12
  21318900.036     3772346.336 8   2923374.75822
  23665581.294     5314146.563 6    860035.99021
  23200043.896     7408217.639 5   1219081.54921
  22030991.9584   -4858342.47247  -3754756.30562
 91  4  6  3 12 15.0010000  0  4G13G 2G 6G12
  21324931.3804    3804039.20848   2948070.50562
  23673507.950     5355792.320 6    892487.17121
  23211279.0754    7467275.02945   1265100.22061
  22025635.521    -4886490.591 7  -3776689.85822
 91  4  6  3 12 30.0010000  0  4G13G 2G 6G12
  21330972.747     3835789.464 8   2972810.99522
  23681442.169     5397495.183 6    924982.88021
  23222536.669     7526411.239 5   1311180.30421
  22020299.442    -4914531.099 7  -3798539.54822
 91  4  6  3 12 45.0010000  0  4G13G 2G 6G12
  21337025.544     3867597.203 7   2997596.25822
  23689387.231     5439255.627 6    957523.45721
  23233806.942     7585626.282 6   1357321.83721
  22014983.286    -4942463.443 7  -3820304.96122
 91  4  6  3 13  0.0010000  0  4G13G 2G 6G12
  21343088.114     3899457.955 7   3022422.83122
  23697344.6534    5481069.41545    990105.58361
  23245086.388     7644915.720 6   1403521.31521
  22009688.599    -4970291.453 7  -3841989.06822
 91  4  6  3 13 15.0010000  0  4G13G 2G 6G12
  21349161.114     3931371.881 7   3047290.83722
  23705312.083     5522936.884 5   1022729.54021
  23256383.427     7704279.676 6   1449778.85821
  22004414.2314   -4998014.26547  -3863591.20162
 91  4  6  3 13 30.0010000  0  4G13G 2G 6G12
  21355245.302     3963343.769 7   3072204.01022
  23713286.724     5564863.135 5   1055399.32121
  23267695.021     7763722.800 6   1496098.10021
  21999159.466    -5025626.484 7  -3885107.15822
 91  4  6  3 13 45.0010000  0  4G13G 2G 6G12
  21361340.997     3995374.859 7   3097163.33022
  23721278.114     5606849.196 5   1088115.68821
  23279020.942     7823246.071 6   1542479.79721
  21993925.927    -5053126.509 7  -3906535.69522
 91  4  6  3 14  0.0010000  0  4G13G 2G 6G12
  21367446.5284    4027460.49647   3122165.13562
  23729279.8724    5648891.00445   1120875.51361
  23290365.333     7882844.795 6   1588920.28621
  21988713.442    -5080518.323 7  -3927879.91422
 91  4  6  3 14 15.0010000  0  4G13G 2G 6G12
  21373561.880     4059600.399 7   3147209.22422
  23737292.0054    5690988.60745   1153678.80861
  23301717.247     7942518.903 5   1635419.51221
  21983521.356    -5107801.385 7  -3949139.38922
 91  4  6  3 14 30.0010000  0  4G13G 2G 6G12
  21379688.552     4091795.975 7   3172296.71022
  23745312.763     5733143.573 5   1186526.78321
  23313088.817     8002269.495 5   1681978.34021
  21978351.067    -5134973.896 7  -3970312.71622
 91  4  6  3 14 45.0010000  0  4G13G 2G 6G12
  21385826.294     4124043.457 8   3197424.63022
  23753344.3804    5775352.43545   1219416.73561
  23324472.419     8062093.059 5   1728594.03521
  21973200.7474   -5162038.75947  -3991402.16262
 91  4  6  3 15  0.0010000  0  4G13G 2G 6G12
  21391971.5364    4156344.47447   3222594.25962
  23761389.653     5817617.027 5   1252350.13221
  23335870.239     8121991.093 5   1775267.74821
  21968071.122    -5188993.720 7  -4012405.97522
 91  4  6  3 15 15.0010000  0  4G13G 2G 6G12
  21398127.763     4188697.845 7   3247804.69422
  23769439.3724    5859936.59945   1285326.38461
  23347284.591     8181962.395 5   1821998.55521
  21962963.1924   -5215839.28647  -4033324.54162
 91  4  6  3 15 30.0010000  0  4G13G 2G 6G12
  21404295.9974    4221105.89848   3273057.73162
  23777509.5604    5902313.52245   1318347.32961
  23358709.888     8242009.076 5   1868788.09721
  21957874.942    -5242572.752 7  -4054155.75922
 91  4  6  3 15 45.0010000  0  4G13G 2G 6G12
  21410472.6694    4253565.15447   3298350.66062
  23785580.9504    5944744.70145   1351410.54461
  23370149.6924    8302127.71545   1915633.69461
  21952808.2714   -5269196.77747  -4074901.70062
 91  4  6  3 16  0.0010000  0  4G13G 2G 6G12
  21416657.513     4286072.570 7   3323681.12922
  23793662.5674    5987226.85745   1384513.49461
  23381605.356     8362314.784 5   1962532.62021
  21947762.872    -5295714.193 7  -4095564.56622
 91  4  6  3 16 15.0010000  0  4G13G 2G 6G12
  21422853.7944    4318632.56047   3349052.55562
  23801758.2634    6029765.08845   1417660.13361
  23393068.9974    8422574.98545   2009488.53061
  21942737.427    -5322119.704 7  -4116140.23622
 91  4  6  3 16 30.0010000  0  4G13G 2G 6G12
  21429059.0914    4351244.83347   3374464.71662
  23809866.427     6072359.353 5   1450850.41921
  23404551.6774    8482908.05945   2056501.24361
  21937733.8414   -5348412.86347  -4136628.35862
 91  4  6  3 16 45.0010000  0  4G13G 2G 6G12
  21435275.536     4383905.837 7   3399914.86822
  23817979.8174    6115006.36145   1484081.81661
  23416045.1144    8543310.44045   2103567.93761
  21932751.396    -5374596.514 7  -4157031.14722
 91  4  6  3 17  0.0010000  0  4G13G 2G 6G12
  21441500.5604    4416617.11047   3425404.17062
  23826105.7864    6157707.86545   1517355.67061
  23427553.317     8603783.493 5   2150689.71621
  21927790.872    -5400668.574 7  -4177346.98722
 91  4  6  3 17 15.0010000  0  4G13G 2G 6G12
  21447733.5054    4449379.18747   3450933.06862
  23834238.6924    6200464.66245   1550672.60861
  23439074.7474    8664327.74645   2197866.97061
  21922850.958    -5426627.921 7  -4197575.00122
 91  4  6  3 17 30.0010000  0  4G13G 2G 6G12
  21453977.880     4482192.022 7   3476501.52222
  23842390.5284    6243276.83645   1584032.70961
  23450611.8884    8724942.80745   2245099.39161
  21917931.997    -5452474.244 7  -4217714.94422
 91  4  6  3 17 45.0010000  0  4G13G 2G 6G12
  21460233.263     4515054.436 7   3502108.61322
  23850545.7394    6286143.47745   1617435.24661
  23462155.653     8785627.401 5   2292385.98221
  21913034.833    -5478208.192 7  -4237767.31922
 91  4  6  3 18  0.0010000  0  4G13G 2G 6G12
  21466494.3334    4547967.06147   3527754.81962
  23858714.3414    6329065.59745   1650881.00861
  23473718.6854    8846382.41145   2339727.45361
  21908159.989    -5503828.187 7  -4257730.89822
 91  4  6  3 18 15.0010000  0  4G13G 2G 6G12
  21472765.8564    4580930.31247   3553440.47362
  23866892.3494    6372043.78845   1684370.47361
  23485294.0134    8907208.23145   2387124.09661
  21903306.146    -5529333.205 7  -4277604.89322
 91  4  6  3 18 30.0010000  0  4G13G 2G 6G12
  21479049.435     4613942.421 7   3579164.21222
  23875082.4814    6415076.46245   1717902.36661
  23496881.239     8968102.794 5   2434574.31121
  21898475.161    -5554724.601 7  -4297390.34622
 91  4  6  3 18 45.0010000  0  4G13G 2G 6G12
  21485341.5364    4647004.47447   3604926.85262
  23883276.974     6458165.052 5   1751477.83921
  23508480.825     9029067.342 5   2482079.07021
  21893665.372    -5580000.481 7  -4317085.79422
 91  4  6  3 19  0.0010000  0  4G13G 2G 6G12
  21491641.192     4680112.923 7   3630725.65822
  23891486.9274    6501305.97045   1785094.09261
  23520093.5284    9090097.99045   2529635.32661
  21888875.8644   -5605163.92247  -4336693.63162
 91  4  6  3 19 15.0010000  0  4G13G 2G 6G12
  21497951.356     4713268.207 8   3656560.95722
  23899711.1064    6544499.98145   1818751.71661
  23531722.6464    9151195.18545   2577243.44561
  21884108.591    -5630213.868 7  -4356213.03022
 91  4  6  3 19 30.0010000  0  4G13G 2G 6G12
  21504269.5364    4746474.06447   3682435.64962
  23907944.302     6587751.272 6   1852453.98021
  23543365.7244    9212362.79445   2624906.40961
  21879364.575    -5655145.831 7  -4375640.49222
 91  4  6  3 19 45.0010000  0  4G13G 2G 6G12
  21510597.130     4779729.222 7   3708348.77322
  23916183.169     6631058.837 6   1886200.09521
  23555016.7784    9273599.49545   2672623.22661
  21874642.435    -5679960.429 7  -4394976.49522
 91  4  6  3 20  0.0010000  0  4G13G 2G 6G12
  21516935.3724    4813030.06748   3734297.48762
  23924437.0834    6674419.05845   1919987.24361
  23566683.2394    9334901.39245   2720390.84261
  21869941.5214   -5704660.89447  -4414223.57062
 91  4  6  3 20 15.0010000  0  4G13G 2G 6G12
  21523280.2784    4846376.82647   3760281.98062
  23932696.4274    6717832.47446   1953815.83961
  23578361.5994    9396268.76145   2768209.47161
  21865263.794    -5729246.457 7  -4433381.10822
 91  4  6  3 20 30.0010000  0  4G13G 2G 6G12
  21529635.005     4879770.592 8   3786303.10822
  23940967.614     6761300.275 5   1987686.79821
  23590050.403     9457702.431 5   2816079.76521
  21860607.294    -5753715.436 7  -4452447.80322
 91  4  6  3 20 45.0010000  0  4G13G 2G 6G12
  21535998.7314    4913209.85747   3812359.68662
  23949246.567     6804821.307 5   2021599.24821
  23601752.6924    9519200.91745   2864000.56061
  21855972.810    -5778068.663 7  -4471424.29922
 91  4  6  3 21  0.0010000  0  4G13G 2G 6G12
  21542369.5674    4946695.29647   3838452.23562
  23957541.786     6848396.500 5   2055553.90021
  23613468.7864    9580764.83945   2911972.34761
  21851360.708    -5802304.939 7  -4490309.66722
 91  4  6  3 21 15.0010000  0  4G13G 2G 6G12
  21548750.231     4980225.551 7   3864579.71822
  23965842.6924    6892024.53845   2089549.70061
  23625194.6464    9642392.60945   2959993.87961
  21846770.138    -5826425.160 7  -4509104.59222
 91  4  6  3 21 30.0010000  0  4G13G 2G 6G12
  21555140.5134    5013801.45647   3890742.77062
  23974152.435     6935706.966 5   2123587.91121
  23636935.161     9704085.234 5   3008065.95021
  21842203.700    -5850427.598 7  -4527807.74722
 91  4  6  3 21 45.0010000  0  4G13G 2G 6G12
  21561538.153     5047421.864 7   3916940.50422
  23982475.036     6979442.529 5   2157667.53421
  23648686.6534    9765841.40745   3056187.52661
  21837658.903    -5874312.865 7  -4546419.60322
 91  4  6  3 22  0.0010000  0  4G13G 2G 6G12
  21567945.6064    5081087.29148   3943173.31062
  23990808.013     7023232.098 5   2191789.21721
  23660450.6464    9827661.63445   3104359.02761
  21833135.208    -5898079.818 7  -4564939.25822
 91  4  6  3 22 15.0010000  0  4G13G 2G 6G12
  21574359.849     5114796.741 7   3969440.42322
  23999155.552     7067074.954 5   2225952.42021
  23672227.771     9889544.786 5   3152579.56421
  21828635.458    -5921728.953 7  -4583367.10822
 91  4  6  3 22 30.0010000  0  4G13G 2G 6G12
  21580781.583     5148549.318 7   3995741.14322
  24007506.6774    7110970.34045   2260156.56561
  23684016.099     9951490.061 5   3200848.50121
  21824158.372    -5945260.556 7  -4601703.37422
 91  4  6  3 22 45.0010000  0  4G13G 2G 6G12
  21587213.4974    5182344.82047   4022075.31062
  24015868.341     7154918.166 5   2294401.54321
  23695813.231    10013496.784 5   3249165.31721
  21819702.685    -5968674.269 7  -4619947.77822
 91  4  6  3 23  0.0010000  0  4G13G 2G 6G12
  21593652.114     5216180.914 7   4048441.11022
  24024240.880     7198916.460 5   2328685.88721
  23707624.919    10075562.763 5   3297528.30521
  21815269.458    -5991971.914 7  -4638101.73822
 91  4  6  3 23 15.0010000  0  4G13G 2G 6G12
  21600099.0604    5250061.72047   4074841.74862
  24032623.630     7242969.399 5   2363012.79621
  23719449.450    10137691.915 5   3345940.52221
  21810858.310    -6015148.847 7  -4656161.63722
 91  4  6  3 23 30.0010000  0  4G13G 2G 6G12
  21606554.763     5283984.977 7   4101275.46622
  24041016.7784    7287075.15345   2397380.85761
  23731283.1854   10199882.00945   3394400.21461
  21806470.560    -6038206.573 7  -4674128.64722
 91  4  6  3 23 45.0010000  0  4G13G 2G 6G12
  21613018.161     5317953.292 7   4127744.29722
  24049420.3564    7331236.37045   2431792.15561
  23743132.372    10262135.504 5   3442909.32821
  21802104.911    -6061142.163 7  -4692000.49822
 91  4  6  3 24  0.0010000  0  4G13G 2G 6G12
  21619489.802     5351963.747 7   4154245.95922
  24057836.013     7375450.452 5   2466244.63621
  23754991.114    10324449.592 5   3491465.64121
  21797763.388    -6083957.578 7  -4709778.69422
 91  4  6  3 24 15.0010000  0  4G13G 2G 6G12
  21625971.247     5386019.304 7   4180782.77522
  24066261.0444    7419720.56545   2500740.78361
  23766862.075    10386826.907 5   3540071.22821
  21793445.146    -6106649.519 7  -4727460.67122
 91  4  6  3 24 30.0010000  0  4G13G 2G 6G12
  21632460.8804    5420117.07947   4207352.47562
  24074694.5754    7464044.17045   2535278.59561
  23778738.755    10449264.635 5   3588723.88621
  21789149.935    -6129220.108 7  -4745048.09622
 91  4  6  3 24 45.0010000  0  4G13G 2G 6G12
  21638954.6064    5454257.99547   4233955.78761
  24083140.4894    7508422.09345   2569858.74561
  23790634.3964   10511763.40545   3637424.10761
  21784878.489    -6151668.019 7  -4762539.92722
 91  4  6  3 25  0.0010000  0  4G13G 2G 6G12
  21645460.8334    5488440.44547   4260591.48062
  24091595.278     7552852.966 5   2604480.13621
  23802537.974    10574321.529 5   3686170.58021
  21780630.317    -6173994.251 7  -4779936.94622
 91  4  6  3 25 15.0010000  0  4G13G 2G 6G12
  21651974.403     5522663.891 7   4287259.10622
  24100057.8414    7597336.59045   2639142.64761
  23814455.4814   10636938.68245   3734963.04261
  21776404.630    -6196198.639 7  -4797239.02322
 91  4  6  3 25 30.0010000  0  4G13G 2G 6G12
  21658494.466     5556929.817 7   4313959.84922
  24108533.536     7641874.556 5   2673847.50821
  23826381.489    10699615.991 5   3783802.38321
  21772203.263    -6218279.304 7  -4814444.69422
 91  4  6  3 25 45.0010000  0  4G13G 2G 6G12
  21665022.396     5591237.967 7   4340693.48922
  24117018.5604    7686467.26245   2708595.02761
  23838319.6534   10762353.37745   3832688.53461
  21768024.817    -6240235.671 7  -4831553.50922
 91  4  6  3 26  0.0010000  0  4G13G 2G 6G12
  21671559.755     5625589.114 7   4367460.63322
  24125515.669     7731115.413 5   2743385.75121
  23850269.1614   10825151.39345   3881621.94161
  21763869.528    -6262066.571 7  -4848564.55122
 91  4  6  3 26 15.0010000  0  4G13G 2G 6G12
  21678105.2164    5659982.10047   4394260.36462
  24134025.1534    7775817.79445   2778218.72361
  23862230.3644   10888008.67145   3930601.50761
  21759739.763    -6283772.704 7  -4865478.37322
 91  4  6  3 26 30.0010000  0  4G13G 2G 6G12
  21684656.505     5694416.617 7   4421092.47722
  24142542.9504    7820574.40945   2813093.94661
  23874204.1384   10950924.75445   3979626.89761
  21755632.5604   -6305353.81547  -4882294.78562
 91  4  6  3 26 45.0010000  0  4G13G 2G 6G12
  21691218.997     5728895.883 7   4447959.45822
  24151066.856     7865388.512 5   2848013.96621
  23886187.739    11013902.573 5   4028700.39321
  21751550.4584   -6326806.35147  -4899011.00462
 91  4  6  3 27  0.0010000  0  4G13G 2G 6G12
  21697787.3174    5763413.40647   4474856.23662
  24159604.1924    7910254.34945   2882974.32061
  23898184.4744   11076936.04345   4077817.24861
  21747491.325    -6348135.816 7  -4915631.32422
 91  4  6  3 27 15.0010000  0  4G13G 2G 6G12
  21704362.833     5797974.556 7   4501787.01822
  24168151.552     7955177.275 5   2917979.15121
  23910191.6144   11140030.34945   4126981.52561
  21743458.1774   -6369336.27547  -4932151.12162
 91  4  6  3 27 30.0010000  0  4G13G 2G 6G12
  21710947.763     5832576.894 7   4528749.89122
  24176712.3644    8000155.15545   2953026.81761
  23922209.606    11203182.963 5   4176191.21521
  21739447.5214   -6390409.59447  -4948571.85562
 91  4  6  3 27 45.0010000  0  4G13G 2G 6G12
  21717539.458     5867217.714 7   4555742.74822
  24185284.2394    8045185.32145   2988115.20361
  23934237.5674   11266391.01245   4225444.10761
  21735461.2004   -6411358.11547  -4964895.34862
 91  4  6  3 28  0.0010000  0  4G13G 2G 6G12
  21724138.8724    5901893.16647   4582762.59062
  24193863.661     8090264.257 5   3023241.56021
  23946272.5284   11329650.63645   4274737.18861
  21731497.3494   -6432184.99747  -4981124.04662
 91  4  6  3 28 15.0010000  0  4G13G 2G 6G12
  21730742.458     5936599.491 7   4609806.49522
  24202446.646     8135388.176 5   3058403.01021
  23958318.1144   11392957.65845   4324067.20461
  21727556.4664   -6452893.65047  -4997260.62562
 91  4  6  3 28 30.0010000  0  4G13G 2G 6G12
  21737352.958     5971333.659 8   4636872.09822
  24211039.106     8180554.275 5   3093597.32721
  23970374.044    11456309.111 5   4373431.82621
  21723638.0914   -6473486.42947  -5013306.91562
 91  4  6  3 28 45.0010000  0  4G13G 2G 6G12
  21743968.771     6006101.280 8   4663963.76322
  24219645.505     8225768.495 5   3128829.13921
  23982437.8564   11519710.51845   4422835.36061
  21719742.8174   -6493957.15247  -5029258.09062
 91  4  6  3 29  0.0010000  0  4G13G 2G 6G12
  21750592.989     6040909.679 8   4691087.20422
  24228262.036     8271038.452 5   3164104.36021
  23994513.997    11583169.182 5   4472283.52321
  21715871.7084   -6514297.84747  -5045107.94362
 91  4  6  3 29 15.0010000  0  4G13G 2G 6G12
  21757223.700     6075755.571 8   4718239.85822
  24236887.817     8316360.879 5   3199420.46721
  24006599.716    11646681.696 5   4521773.66721
  21712025.0604   -6534511.40447  -5060858.73062
 91  4  6  3 29 30.0010000  0  4G13G 2G 6G12
  21763861.208     6110641.127 7   4745423.42322
  24245521.8884    8361738.28445   3234779.43261
  24018698.177    11710250.014 5   4571307.28421
  21708203.544    -6554595.103 7  -5076508.32922
 91  4  6  3 29 45.0010000  0  4G13G 2G 6G12
  21770507.396     6145561.819 7   4772634.36922
  24254166.411     8407166.384 5
  24030804.981    11773869.571 5
  21704405.4974   -6574552.88147  -5092059.81562
